Regional Weather Roundup
Issued by NWS Grand Forks, ND

Home | Current Version | Previous Version | Text Only | Print | Product List | Glossary Off
Versions: 1 2 3 4 5 6 7 8 9 10 11 12 13 14 15 16 17 18 19 20 21 22 23 24 25 26 27 28 29 30 31 32 33 34 35 36 37 38 39 40 41 42 43 44 45 46 47 48 49 50

000
ASUS43 KFGF 110631
RWRFGF
PRAIRIE TO PINES  WEATHER ROUNDUP
NATIONAL WEATHER SERVICE EASTERN NORTH DAKOTA/GRAND FORKS ND
1200 AM CST MON DEC 11 2017

 **SATELLITE DATA USED TO AUGMENT SKY COVER AT AUTOMATED STATIONS**
 *****  WEATHER ACROSS EASTERN NORTH DAKOTA  *****

CITY           SKY/WX    TMP DP  RH WIND       PRES   REMARKS
GRAND FORKS    CLOUDY    28  27  96 S12       29.72F WCI  18
6HR MIN TEMP:  24; 6HR MAX TEMP:  29; 6HR PCP:  0.06;

GRAND FRKS AFB MOCLDY    34  30  86 W3        29.70F
GRAND FRKS NWS   N/A     28 N/A N/A SW10        N/A  WCI  19
DEVILS LAKE    MOCLDY    36  29  75 W12       29.72F
6HR MIN TEMP:  33; 6HR MAX TEMP:  38; 6HR PCP:  0.01;

FARGO          MOCLDY    30  27  88 S12       29.76F WCI  20
WAHPETON ARPT  FAIR      30  25  80 S10       29.80F WCI  21
$$

 ***** WEATHER ACROSS CENTRAL AND WESTERN NORTH DAKOTA  *****

CITY           SKY/WX    TMP DP  RH WIND       PRES   REMARKS
BISMARCK       FAIR      45  22  40 W21       29.91F
6HR MIN TEMP:  35; 6HR MAX TEMP:  46;

MINOT          CLOUDY    40  33  76 W29G38    29.80S
6HR MIN TEMP:  39; 6HR MAX TEMP:  45; 6HR PCP: TRACE;

JAMESTOWN      MOCLDY    39  28  64 W14       29.77F
6HR MIN TEMP:  35; 6HR MAX TEMP:  41; 6HR PCP: TRACE;

MINOT AFB      MOCLDY    39  33  80 NW28G39   29.78R
GARRISON         N/A     42  24  49 NW28G37   29.85F
WILLISTON      MOCLDY    42  28  57 NW25G37   29.98R
6HR MIN TEMP:  38; 6HR MAX TEMP:  43;

DICKINSON      FAIR      36  20  52 W21       29.97F
6HR MIN TEMP:  34; 6HR MAX TEMP:  39;

HETTINGER      FAIR      40  16  37 NW20      30.03S
6HR MIN TEMP:  30; 6HR MAX TEMP:  42;

$$

 *****  OTHER AIRPORT OBSERVATIONS IN OUR AREA  *****

CITY           SKY/WX    TMP DP  RH WIND       PRES   REMARKS
WALHALLA       MIX PCPN  37  37 100 W10       29.66F
GRAFTON AIRPOR NOT AVBL
VALLEY CITY AR NOT AVBL
CANDO          CLOUDY    36  36 100 W18G25    29.72F
CAVALIER APRT  MIX PCPN  28  28 100 S8        29.67F WCI  20
GWINNER          N/A     37  30  75 SW12      29.79F
SHEYENNE NWR     N/A     33  33  98 SW3       29.95S
ROLLA          LGT RAIN  36  36 100 NW20G29   29.70S
 ***** THE ABOVE OBSERVATIONS ARE NON NWS ARE NOT QUALITY
       CONTROLLED AND MAY MIS-REPORT RAIN FOR SNOW...
$$

  *****  WEATHER ACROSS NORTHERN MINNESOTA  *****

CITY           SKY/WX    TMP DP  RH WIND       PRES   REMARKS
FLAG ISLAND    LGT SNOW  18  16  93 S18       29.72F WCI   2
WARROAD        LGT SNOW  21  18  86 S8        29.72F WCI  12
ROSEAU         CLOUDY    23  18  80 S13       29.71F WCI  11
HALLOCK        CLOUDY    27  25  93 S14       29.68F WCI  15
THF RVR FALLS  CLOUDY    27  25  93 S13       29.72F WCI  16
6HR MIN TEMP:  21; 6HR MAX TEMP:  25; 6HR PCP:  0.01;

BAUDETTE       LGT SNOW  19  17  92 SE9       29.74F FOG     WCI   8
6HR MIN TEMP:  14; 6HR MAX TEMP:  19; 6HR PCP: TRACE;

WASKISH        LGT SNOW  21  19  93 SE7       29.75F WCI  13
CROOKSTON      MOCLDY    27  27 100 S13       29.74F WCI  16
STEPHEN NDAWN    N/A     25  25 100 S13         N/A  WCI  13
GREENBUSH NDAW   N/A     23  21  93 S13         N/A  WCI  11
$$
  *****  WEATHER ACROSS CENTRAL AND WEST MINNESOTA  *****

CITY           SKY/WX    TMP DP  RH WIND       PRES   REMARKS
FOSSTON        CLOUDY    25  25 100 S12       29.75F WCI  14
BEMIDJI        LGT SNOW  21  19  93 S7        29.75F WCI  13
6HR MIN TEMP:  12; 6HR MAX TEMP:  21; 6HR PCP:  0.04;

PARK RAPIDS    LGT SNOW  24  21  88 S6        29.78F FOG     WCI  17
6HR MIN TEMP:  16; 6HR MAX TEMP:  23; 6HR PCP:  0.04;

ELBOW LAKE     CLOUDY    28  26  89 S9        29.83F WCI  20
6HR MIN TEMP:  27; 6HR MAX TEMP:  28;

WADENA         MIX PCPN  25  25 100 SW7       29.80F WCI  17
DETROIT LAKES  CLOUDY    30  28  93 S9        29.78F WCI  22
MOORHEAD       FAIR      28  25  86 S12       29.78F WCI  18
FERGUS FALLS   MOCLDY    28  28 100 S7        29.85F WCI  21
MORRIS MN      FAIR      30  27  86 S7        29.84F WCI  23
STAPLES        LGT SNOW  23  21  93 S9        29.80F WCI  13
$$
  *****  WEATHER ELSEWHERE ACROSS MINNESOTA  *****

CITY           SKY/WX    TMP DP  RH WIND       PRES   REMARKS
DULUTH         CLOUDY    15  12  88 S5        29.90S WCI   8
6HR MIN TEMP:   9; 6HR MAX TEMP:  15;

INTRNTL FALLS  SNOW      15  11  83 S7        29.80F VSB 1/2 WCI   5
6HR MIN TEMP:   2; 6HR MAX TEMP:  15; 6HR PCP: TRACE;

ELY            FAIR       9   5  85 S6        29.86F WCI  -1
CLOQUET        CLOUDY    18  12  79 SE5       29.88F WCI  11
WHEATON        NOT AVBL
BRAINERD       LGT SNOW  24  21  88 S8        29.86F VSB 3/4 WCI  15
6HR MIN TEMP:  19; 6HR MAX TEMP:  25; 6HR PCP:  0.01;

HIBBING        CLOUDY    13  10  88 SE7       29.86F WCI   3
6HR MIN TEMP:   4; 6HR MAX TEMP:  13;

ALEXANDRIA     LGT SNOW  28  26  92 SW12      29.86F FOG     WCI  18
6HR MIN TEMP:  24; 6HR MAX TEMP:  28; 6HR PCP:  0.05;

SAINT CLOUD    LGT SNOW  25  24  96 S5        29.90F VSB 3/4 WCI  19
6HR MIN TEMP:  17; 6HR MAX TEMP:  25; 6HR PCP:  0.01;

MINNEAPOLIS    CLOUDY    25  23  92 S5        29.93F WCI  19
6HR MIN TEMP:  23; 6HR MAX TEMP:  27;

$$

  *****  WEATHER ACROSS SOUTH DAKOTA  *****

CITY           SKY/WX    TMP DP  RH WIND       PRES   REMARKS
SIOUX FALLS    CLOUDY    36  28  73 SW3       29.91F
6HR MIN TEMP:  32; 6HR MAX TEMP:  37;

BROOKINGS      CLOUDY    34  27  75 NW6       29.91S
WATERTOWN      CLOUDY    35  28  75 W8        29.87F
6HR MIN TEMP:  32; 6HR MAX TEMP:  35;

HURON          FAIR      38  28  67 W12       29.94R
6HR MIN TEMP:  31; 6HR MAX TEMP:  39;

SISSETON         N/A     42  28  57 W10       29.82F
ABERDEEN       CLOUDY    38  29  70 W8        29.89F
6HR MIN TEMP:  31; 6HR MAX TEMP:  38;

MITCHELL       FAIR      41  26  55 W14       29.96R
PIERRE         FAIR      43  22  43 NW10      29.98S
6HR MIN TEMP:  42; 6HR MAX TEMP:  50;

MOBRIDGE       FAIR      37  23  56 W5        29.91F
RAPID CITY     FAIR      52  11  19 NW16      30.12R
6HR MIN TEMP:  41; 6HR MAX TEMP:  53;

$$

  *****  SOME WEATHER IN NEARBY STATES *****

CITY           SKY/WX    TMP DP  RH WIND       PRES   REMARKS
GLASGOW MT     FAIR      42  23  46 NW23G31   30.18R
6HR MIN TEMP:  30; 6HR MAX TEMP:  43;

GREAT FALLS MT FAIR      35  13  40 SW13      30.40R
6HR MIN TEMP:  34; 6HR MAX TEMP:  42;

CHEYENNE WY    FAIR      41   0  18 W20       30.33R
6HR MIN TEMP:  36; 6HR MAX TEMP:  44;

SCOTTSBLUFF NE FAIR      29   9  43 NW5       30.28R WCI  24
6HR MIN TEMP:  29; 6HR MAX TEMP:  48;

OMAHA NE       FAIR      33  23  66 SE5       30.02F
6HR MIN TEMP:  29; 6HR MAX TEMP:  42;

DES MOINES IA  CLOUDY    34  25  69 S5        30.03F
6HR MIN TEMP:  34; 6HR MAX TEMP:  41;

DAVENPORT IA   MOCLDY    23  19  85 SE3       30.08F
6HR MIN TEMP:  20; 6HR MAX TEMP:  30;

CHICAGO IL     MOCLDY    28  18  66 N5        30.06F WCI  23
6HR MIN TEMP:  26; 6HR MAX TEMP:  31;

EAU CLAIRE WI  CLOUDY    22  19  89 S6        29.96F WCI  14
6HR MIN TEMP:  16; 6HR MAX TEMP:  22;

LA CROSSE WI   CLOUDY    27  20  75 S6        30.01F WCI  20
6HR MIN TEMP:  27; 6HR MAX TEMP:  29;

$$

  *****  SOME NATIONAL WEATHER *****

CITY           SKY/WX    TMP DP  RH WIND       PRES   REMARKS
LA GUARDIA NY  CLOUDY    37  21  52 SW13G18   30.00F
6HR MIN TEMP:  37; 6HR MAX TEMP:  38;

RALEIGH NC     FAIR      28  24  85 W5        30.14F WCI  23
6HR MIN TEMP:  28; 6HR MAX TEMP:  35;

ATLANTA GA     FAIR      34  27  75 W6        30.23F
6HR MIN TEMP:  34; 6HR MAX TEMP:  37;

NEW ORLEANS LA FAIR      41  36  82 SW3       30.34S
6HR MIN TEMP:  37; 6HR MAX TEMP:  49;

OKLAHOMA CITY  FAIR      41  16  36 CALM      30.26F
6HR MIN TEMP:  37; 6HR MAX TEMP:  56;

ALBUQUERQUE NM FAIR      35   3  26 NE3       30.47R
6HR MIN TEMP:  32; 6HR MAX TEMP:  50;

SALT LAKE CITY FAIR      27  24  89 CALM      30.60S FOG
6HR MIN TEMP:  27; 6HR


USA.gov is the U.S. government's official web portal to all federal, state and local government web resources and services.